[Iaude] MPEC R94: 2016 RZ17 [a=1.02,e=0.06,i=29.1,H=25.6]

mpec at mpc.eps.harvard.edu mpec at mpc.eps.harvard.edu
Thu Sep 8 23:27:17 EDT 2016


M.P.E.C. 2016-R94                                Issued 2016 Sept.  9, 03:24 UT
 
     The Minor Planet Electronic Circulars contain information on unusual
         minor planets and routine data on comets.  They are published
    on behalf of Division F of the International Astronomical Union by the
          Minor Planet Center, Smithsonian Astrophysical Observatory,
                          Cambridge, MA 02138, U.S.A.

             Prepared using the Tamkin Foundation Computer Network

                              MPC at CFA.HARVARD.EDU
            URL http://www.minorplanetcenter.net/    ISSN 1523-6714


                                   2016 RZ17
 
Observations:
     K16R17Z* C2016 09 05.39600 23 38 46.17 +21 46 39.1          18.6 VqER094703
     K16R17Z  C2016 09 05.40521 23 38 51.60 +21 38 03.0          18.8 VqER094703
     K16R17Z  C2016 09 05.40626 23 38 52.22 +21 37 04.2          18.3 VqER094G96
     K16R17Z  C2016 09 05.40982 23 38 54.26 +21 33 45.4          18.9 VqER094703
     K16R17Z  C2016 09 05.40983 23 38 54.30 +21 33 43.8          19.0 VqER094G96
     K16R17Z  C2016 09 05.41332 23 38 56.37 +21 30 27.1          19.2 VqER094G96
     K16R17Z  C2016 09 05.41689 23 38 58.48 +21 27 04.4          19.5 VqER094G96
     K16R17Z  C2016 09 06.24121 23 49 31.07 +06 48 31.9          18.6 VqER094703
     K16R17Z  C2016 09 06.24450 23 49 33.30 +06 44 37.1          18.5 VqER094703
     K16R17Z  C2016 09 06.24779 23 49 35.54 +06 40 43.8          18.4 VqER094703
     K16R17Z  C2016 09 06.25109 23 49 37.65 +06 36 49.7          18.3 VqER094703
     K16R17Z  C2016 09 06.28940 23 50 03.01 +05 51 12.8          18.1 VqER094703
     K16R17Z  C2016 09 06.28972 23 50 03.32 +05 50 49.5          18.4 VqER094703
     K16R17Z  C2016 09 06.29005 23 50 03.44 +05 50 25.8          18.4 VqER094703
     K16R17Z  C2016 09 06.29038 23 50 03.73 +05 50 02.3          18.7 VqER094703
     K16R17Z KC2016 09 06.30780623 50 07.05 +05 28 30.0          18.6 VuER094H21
     K16R17Z KC2016 09 06.30900223 50 07.85 +05 27 03.5          18.5 VuER094H21
     K16R17Z KC2016 09 06.31028523 50 08.70 +05 25 30.9          18.4 VuER094H21
     K16R17Z KC2016 09 06.31155823 50 09.53 +05 23 59.2          18.3 VuER094H21
     K16R17Z KC2016 09 06.31282423 50 10.39 +05 22 27.9          18.5 VuER094H21
     K16R17Z KC2016 09 06.31408823 50 11.24 +05 20 56.5          18.6 VuER094H21
     K16R17Z KC2016 09 06.31535323 50 12.06 +05 19 25.4          18.5 VuER094H21
     K16R17Z KC2016 09 06.31661923 50 12.91 +05 17 53.8          18.4 VuER094H21
     K16R17Z KC2016 09 06.31788423 50 13.75 +05 16 22.3          18.5 VuER094H21
     K16R17Z KC2016 09 06.31914823 50 14.60 +05 14 51.0          18.5 VuER094H21
     K16R17Z KC2016 09 06.91873 23 58 38.69 -07 18 25.2          19.1 VqER094151
     K16R17Z KC2016 09 06.92012 23 58 39.75 -07 20 13.3          19.0 VqER094151
     K16R17Z KC2016 09 06.92152 23 58 40.68 -07 22 00.9          18.1 VqER094151
     K16R17Z KC2016 09 06.92296 23 58 41.79 -07 23 52.5          18.0 VqER094151
     K16R17Z KC2016 09 06.92441 23 58 42.87 -07 25 44.0          18.5 VqER094151
     K16R17Z KC2016 09 07.00452 23 59 45.66 -09 08 51.3          18.0 VqER094I93
     K16R17Z KC2016 09 07.00842 23 59 48.55 -09 13 52.7          17.9 VqER094I93
     K16R17Z KC2016 09 07.01231 23 59 51.44 -09 18 54.6          18.0 VqER094I93
     K16R17Z KC2016 09 07.05850 00 00 22.90 -10 18 31.5          17.9 RqER094204
     K16R17Z KC2016 09 07.06139 00 00 25.04 -10 22 14.7                qER094204
     K16R17Z KC2016 09 07.06430 00 00 27.26 -10 25 58.8                qER094204
     K16R17Z KC2016 09 07.22785400 03 02.40 -13 55 48.1          18.3 VuER094H21
     K16R17Z KC2016 09 07.22923900 03 03.43 -13 57 34.8          18.6 VuER094H21
     K16R17Z KC2016 09 07.23033000 03 04.25 -13 58 59.2          18.5 VuER094H21
     K16R17Z KC2016 09 07.23142100 03 05.09 -14 00 23.2          18.2 VuER094H21
     K16R17Z KC2016 09 07.23251300 03 05.91 -14 01 47.1          18.4 VuER094H21
     K16R17Z KC2016 09 07.23360400 03 06.75 -14 03 11.0          18.4 VuER094H21
     K16R17Z KC2016 09 07.23473200 03 07.61 -14 04 37.6          18.4 VuER094H21
     K16R17Z |C2016 09 08.25494 00 18 54.94 -34 08 26.2          18.5 VuER094807
     K16R17Z |C2016 09 08.25560 00 18 55.48 -34 09 08.5          18.6 VuER094807
     K16R17Z |C2016 09 08.25624 00 18 56.01 -34 09 49.4          18.0 VuER094807
     K16R17Z |C2016 09 08.25897 00 18 58.32 -34 12 39.8          19.2 VuER094807
     K16R17Z |C2016 09 08.25969 00 18 58.90 -34 13 25.5          18.9 VuER094807
     K16R17Z |C2016 09 08.26024 00 18 59.37 -34 13 59.8          18.8 VuER094807
 
Observer details:
151 Eschenberg Observatory, Winterthur.  Observer M. Griesser.  0.60-m f/3.8
    astrograph + CCD.
204 Schiaparelli Observatory.  Observer L. Buzzi.  0.60-m f/4.64 reflector
    + CCD.
703 Catalina Sky Survey.  Observers G. J. Leonard, R. A. Kowalski.  Measurers
    E. J. Christensen, D. C. Fuls, A. R. Gibbs, A. D. Grauer, J. A. Johnson,
    R. A. Kowalski, S. M. Larson, G. J. Leonard, R. G. Matheny, R. L. Seaman,
    F. C. Shelly.  0.68-m Schmidt + CCD.
807 Cerro Tololo.  Observers T. Linder, R. Holmes.  0.61-m f/6.5 astrograph
    + CCD.
G96 Mt. Lemmon Survey.  Observer R. G. Matheny.  Measurers E. J. Christensen,
    D. C. Fuls, A. R. Gibbs, A. D. Grauer, J. A. Johnson, R. A. Kowalski,
    S. M. Larson, G. J. Leonard, R. G. Matheny, R. L. Seaman, F. C. Shelly.
    1.5-m reflector + 10K CCD.
H21 Astronomical Research Observatory, Westfield.  Observer R. Holmes.
    Measurers S. Foglia, L. Buzzi, T. Linder, R. Holmes.  0.61-m f/4.5
    astrograph + CCD.
I93 St Pardon de Conques.  Observer F. Losse.  0.40-m f/3.7 reflector + CCD.
 
Orbital elements:
2016 RZ17                                                Earth MOID = 0.0149 AU
Epoch 2016 July 31.0 TT = JDT 2457600.5                 MPC
M 229.77252              (2000.0)            P               Q
n   0.95369378     Peri.  280.87075     +0.04744795     -0.99041134
a   1.0221864      Node   164.51280     +0.99492368     +0.05840017
e   0.0574455      Incl.   29.07137     -0.08874441     +0.12519907
P   1.03           H   25.6           G   0.15           U   7
Residuals in seconds of arc
160905 703  0.1-  1.5-    160906 H21  0.0   0.2-    160907 204  0.1-  0.4-
160905 703  0.4+  0.4-    160906 H21  0.2-  0.0     160907 204  0.4+  0.2+
160905 G96  0.1+  0.1-    160906 H21  0.0   0.1+    160907 H21  0.1+  0.5+
160905 703  0.4-  1.5+    160906 H21  0.1+  0.1-    160907 H21  0.2-  0.5+
160905 G96  0.2-  0.6+    160906 H21  0.2-  0.1+    160907 H21  0.3-  0.1+
160905 G96  0.1-  0.7+    160906 H21  0.1-  0.0     160907 H21  0.1-  0.1+
160905 G96  0.2-  0.4-    160906 H21  0.2-  0.1-    160907 H21  0.2-  0.2+
160906 703  0.1-  0.6+    160906 H21  0.1-  0.1-    160907 H21  0.0   0.3+
160906 703  0.3+  0.7-    160906 151  1.0+  0.1-    160907 H21  0.1+  0.5+
160906 703  0.8+  0.3-    160906 151  1.2+  0.7-    160908 807  0.2+  0.2+
160906 703  0.6-  0.2+    160906 151  0.7-  0.0     160908 807  0.0   0.5-
160906 703  0.6-  0.0     160906 151  0.3-  0.2-    160908 807  0.1-  1.1-
160906 703  0.8+  0.3-    160906 151  0.5-  0.5+    160908 807  0.0   0.4+
160906 703  0.6-  0.3-    160907 I93  0.0   0.0     160908 807  0.3-  0.0
160906 703  0.5+  0.2-    160907 I93  0.1+  0.5+    160908 807  0.2-  0.3+
160906 H21  0.0   0.2+    160907 I93  0.2+  0.3-
160906 H21  0.1+  0.1-    160907 204  0.3+  0.5-

Ephemeris:
2016 RZ17                a,e,i = 1.02, 0.06, 29                  q = 0.9635
Date    TT    R. A. (2000) Decl.     Delta      r     Elong.  Phase     V
2016 08 10    21 51 42.7 +70 38 39   0.2338  1.0545    93.6    73.6    25.1
...
2016 08 25    22 23 49.5 +66 24 19   0.1133  1.0418   102.8    71.1    23.5
...
2016 09 02    23 06 15.7 +51 34 46   0.04860 1.0344   120.3    57.3    21.2
...
2016 09 08    00 14 45.9 -29 29 29   0.02404 1.0286   151.3    28.1    18.8
2016 09 09    00 31 50.7 -45 40 09   0.02819 1.0276   135.9    43.0    19.6
2016 09 10    00 51 00.4 -56 51 17   0.03402 1.0267   124.7    53.8    20.3
...
2016 09 16    03 21 42.7 -78 27 38   0.07979 1.0208    98.9    76.6    22.8
...
2016 09 24    05 59 48.6 -80 53 15   0.1450  1.0129    89.7    82.0    24.3
...
2016 10 09    07 31 43.9 -80 02 25   0.2609  0.9985    82.4    82.6    25.6

A. U. Tomatic                (C) Copyright 2016 MPC           M.P.E.C. 2016-R94




More information about the Iaude mailing list